Вернуться в каталог

DELTA 1 DEB

АктивенSSO
NORAD 12537·DEBRIS·🇺🇸 United States

Запущен Jul 29, 1976 с Vandenberg Space Force Base

Loading…

Ближайшие Пролёты (ближайшие 24 часа)

TLE

СвежийSource: Space-Track

Эпоха: Sep 14, 2026, 11:44 UTC

1 12537U 76077DS  26257.48956817 -.00000037  00000-0  52193-4 0  9990
2 12537 102.3232 216.5521 0161204 120.0574 319.4185 12.11634860 47642

Отслеживайте DELTA 1 DEB в реальном времени с AllMySat

Download on the App Store